[[{"header":{"parameterUnit":"m.s-1","parameterCategory":1,"la1":30.2991,"la2":30.254,"lo1":-89.0895,"lo2":-89.0444,"dy":0.0017,"dx":0.0017,"nx":28,"ny":28,"refTime":"2025-02-04T03:00:00:Z","depth":0,"parameterNumber":2,"parameterNumberName":"U-component_of_WINDS"},"data":[0,0,0,0,0,0,0,0,0,0,0,0,0,0,0,0,0,0,0,0,0,0,0,0,0,0,0,0,0,0,0,0,0,0,0,0,0,0,0,0,0,0,0,0,0,0,0,0,0,0,0,0,0,0,0,0,0,0,0.3414,0.3414,0,0.3471,0.3472,0.3472,0.3486,0.3485,0.3485,0.3484,0.3543,0.3545,0.3547,0,0,0,0,0,0,0,0,0,0,0,0,0,0.3315,0.3317,0.3414,0.3414,0.3415,0.3471,0.3472,0.3472,0.3486,0.3485,0.3485,0.3484,0.3542,0.3544,0.3547,0,0,0,0,0,0,0,0,0,0,0,0,0,0.3364,0.3318,0.3414,0.3428,0.343,0.3471,0.3472,0.3473,0.3486,0.3485,0.3485,0.3484,0.3541,0.3544,0.3547,0.3577,0,0,0.3556,0.3557,0,0,0,0,0,0,0,0,0.3361,0.3367,0.3426,0.3427,0.343,0.3471,0.3458,0.3507,0.3486,0.3465,0.3484,0.3484,0.3519,0.3524,0.3536,0.3579,0.3582,0.3556,0.3558,0.3559,0.356,0,0,0,0,0,0,0,0.3358,0.3365,0.3436,0.3426,0.3429,0.3432,0.3438,0.3468,0.3495,0.3466,0.3468,0.3474,0.352,0.3533,0.3537,0.3583,0.3556,0.3559,0.356,0.3562,0.3653,0.3654,0,0,0,0,0,0,0.3352,0.3362,0.3435,0.3438,0.3393,0.3434,0.3441,0.3458,0.3494,0.3499,0.3475,0.3475,0.3528,0.3534,0.3539,0.3577,0.3559,0.3562,0.3563,0.3653,0.3653,0.3654,0,0,0,0,0,0,0.335,0.3358,0.3432,0.34,0.341,0.3437,0.3455,0.3459,0.3472,0.35,0.3505,0.3483,0.3528,0.3535,0.3567,0.3579,0.3563,0.3566,0.3652,0.3653,0.3654,0.3651,0,0,0,0,0,0,0.3347,0.3357,0.3369,0.3401,0.3412,0.3459,0.3456,0.3461,0.3477,0.3478,0.3509,0.3514,0.3528,0.3563,0.357,0.3582,0.3568,0.3651,0.3652,0.3654,0.365,0.3652,0.3653,0,0,0,0,0,0.3343,0.3366,0.3369,0.3378,0.3427,0.346,0.3466,0.3482,0.3478,0.349,0.3508,0.3513,0.3576,0.3566,0.3574,0.3588,0.365,0.3652,0.3653,0.3649,0.3651,0.3653,0,0,0,0,0,0,0.3334,0.337,0.3375,0.3408,0.3431,0.3462,0.3477,0.3484,0.3508,0.3507,0.3526,0.3533,0.3564,0.3579,0.3567,0.3618,0.3613,0.3616,0.3607,0.3609,0.3611,0.3607,0.357,0,0,0,0,0,0.3336,0.336,0.339,0.3417,0.3428,0.3451,0.3466,0.3476,0.35,0.351,0.353,0.3553,0.3579,0.3595,0.3619,0.3652,0.3659,0.3665,0.3667,0.3668,0.3671,0.3689,0.3692,0.366,0.3659,0.3659,0,0,0.3341,0.3363,0.3377,0.3415,0.3434,0.3459,0.3459,0.3484,0.3502,0.3514,0.3545,0.3561,0.3588,0.362,0.3636,0.3634,0.3681,0.367,0.3671,0.3673,0.3691,0.3694,0.3697,0.3661,0.366,0.366,0,0,0.3361,0.338,0.3404,0.3423,0.3452,0.3467,0.3473,0.3503,0.3514,0.3546,0.3555,0.3577,0.362,0.3639,0.3654,0.3681,0.3687,0.3689,0.3697,0.3714,0.3717,0.3719,0.3729,0.3732,0.3691,0.3691,0.3691,0,0.3362,0.3399,0.3416,0.3442,0.3458,0.347,0.3494,0.3512,0.3547,0.3558,0.3556,0.361,0.3629,0.3666,0.3672,0.3684,0.3692,0.3685,0.3715,0.3718,0.372,0.373,0.3733,0.3691,0.3691,0.3691,0.3691,0,0.34,0.3426,0.3442,0.3476,0.3494,0.3519,0.3539,0.3556,0.3565,0.358,0.3612,0.3635,0.3665,0.3674,0.3683,0.3713,0.3711,0.3712,0.3707,0.3723,0.3732,0.3736,0.3691,0.3691,0.3691,0.3691,0,0,0.3416,0.3459,0.3465,0.348,0.3513,0.3533,0.3558,0.3587,0.3601,0.3625,0.3647,0.3683,0.3684,0.3701,0.3712,0.3727,0.3747,0.3726,0.3727,0.3729,0.3782,0.3781,0.3785,0.3751,0.3752,0.3753,0.3779,0,0.344,0.3486,0.3502,0.354,0.3564,0.3575,0.3597,0.3619,0.3634,0.3657,0.3673,0.3698,0.3697,0.3708,0.3724,0.3742,0.3758,0.374,0.3772,0.3773,0.3765,0.379,0.3789,0.3813,0.3783,0.3784,0.3784,0,0.3475,0.3499,0.354,0.3569,0.358,0.36,0.3628,0.3649,0.3674,0.3684,0.3703,0.3713,0.374,0.3733,0.377,0.3757,0.3771,0.3782,0.3783,0.3787,0.3779,0.3794,0.3821,0.3825,0.379,0.379,0.3789,0,0.3482,0.3526,0.3556,0.3568,0.3604,0.3617,0.3633,0.3657,0.3674,0.3698,0.3709,0.3736,0.3751,0.3772,0.3788,0.3782,0.3824,0.3819,0.3833,0.3832,0.3841,0.384,0.3871,0.385,0.385,0.385,0.3849,0,0.3508,0.3532,0.356,0.3578,0.3605,0.3623,0.365,0.3666,0.3688,0.3709,0.3721,0.374,0.3761,0.3784,0.3797,0.3826,0.3832,0.3841,0.3844,0.384,0.3839,0.3849,0.3848,0.3851,0.385,0.385,0.385,0,0.3521,0.354,0.3574,0.3605,0.3613,0.3632,0.3658,0.3676,0.3692,0.3719,0.3726,0.375,0.3777,0.3796,0.383,0.3839,0.387,0.3873,0.3862,0.3864,0.3876,0.3875,0.3915,0.3921,0.3895,0.3896,0.3896,0,0.3536,0.3555,0.3588,0.3604,0.3619,0.3643,0.3661,0.3679,0.3696,0.3726,0.3741,0.3769,0.3792,0.3835,0.3855,0.3882,0.3885,0.3897,0.3889,0.3885,0.3886,0.3884,0.3886,0.3899,0.3899,0.3899,0.3899,0,0.356,0.3569,0.3593,0.3621,0.3641,0.3664,0.3687,0.3698,0.3721,0.3739,0.3767,0.3785,0.3821,0.3848,0.3877,0.3892,0.39,0.3902,0.3906,0.3902,0.3895,0.3899,0.3865,0.3901,0.39,0.39,0.39,0.39,0.3575,0.3593,0.3619,0.3645,0.3665,0.3686,0.3704,0.3722,0.3746,0.3776,0.3786,0.3815,0.3839,0.3879,0.3894,0.3917,0.3916,0.3923,0.3925,0.3926,0.3926,0.3891,0.3923,0.3923,0.3922,0.3922,0.3922,0,0.36,0.3618,0.3642,0.3674,0.3695,0.37,0.3725,0.3742,0.3768,0.3791,0.3813,0.3845,0.3872,0.3895,0.3922,0.3936,0.394,0.3943,0.3942,0.3945,0.3925,0.3919,0.3939,0.3939,0.3939,0.3939,0.3939,0.3939,0.3616,0.3646,0.3658,0.3697,0.3714,0.3743,0.3757,0.3777,0.3795,0.383,0.3853,0.3867,0.389,0.3919,0.3944,0.395,0.3959,0.3961,0.3968,0.3949,0.3947,0.3945,0.3939,0.3963,0.3963,0.3986,0.3987,0.3987]},{"header":{"parameterUnit":"m.s-1","parameterCategory":1,"la1":30.2991,"la2":30.254,"lo1":-89.0895,"lo2":-89.0444,"dy":0.0017,"dx":0.0017,"nx":28,"ny":28,"refTime":"2025-02-04T03:00:00:Z","depth":0,"parameterNumber":3,"parameterNumberName":"V-component_of_WINDS"},"data":[0,0,0,0,0,0,0,0,0,0,0,0,0,0,0,0,0,0,0,0,0,0,0,0,0,0,0,0,0,0,0,0,0,0,0,0,0,0,0,0,0,0,0,0,0,0,0,0,0,0,0,0,0,0,0,0,0,0,2.07,2.07,0,2.0685,2.0685,2.0685,2.0665,2.0665,2.0664,2.0664,2.0648,2.0648,2.0648,0,0,0,0,0,0,0,0,0,0,0,0,0,2.0711,2.0711,2.07,2.07,2.07,2.0685,2.0685,2.0685,2.0665,2.0665,2.0664,2.0664,2.0648,2.0648,2.0648,0,0,0,0,0,0,0,0,0,0,0,0,0,2.0702,2.0711,2.07,2.0688,2.0687,2.0685,2.0685,2.0685,2.0665,2.0665,2.0664,2.0664,2.0648,2.0648,2.0648,2.0657,0,0,2.0647,2.0647,0,0,0,0,0,0,0,0,2.0703,2.0702,2.069,2.0689,2.0688,2.0677,2.0683,2.0675,2.0665,2.0673,2.0664,2.0664,2.0658,2.0657,2.0655,2.0656,2.0655,2.0647,2.0647,2.0647,2.0647,0,0,0,0,0,0,0,2.0704,2.0702,2.0694,2.069,2.0688,2.0683,2.0682,2.0682,2.0669,2.0673,2.0671,2.067,2.0657,2.0655,2.0655,2.0655,2.0647,2.0647,2.0647,2.0647,2.0662,2.0663,0,0,0,0,0,0,2.0706,2.0703,2.0695,2.0694,2.0694,2.0684,2.0682,2.0681,2.0669,2.0666,2.067,2.0669,2.0656,2.0655,2.0654,2.0664,2.0647,2.0647,2.0647,2.0662,2.0662,2.0663,0,0,0,0,0,0,2.0706,2.0705,2.0695,2.0698,2.0696,2.0684,2.0683,2.0681,2.0679,2.0667,2.0664,2.0671,2.0656,2.0654,2.0656,2.0663,2.0647,2.0647,2.0661,2.0662,2.0663,2.0683,0,0,0,0,0,0,2.0707,2.0706,2.0709,2.0698,2.0696,2.0698,2.0683,2.0681,2.0679,2.0677,2.0667,2.0664,2.0655,2.0657,2.0656,2.0662,2.0647,2.0661,2.0662,2.0662,2.0682,2.0685,2.0687,0,0,0,0,0,2.0707,2.0715,2.0709,2.0708,2.07,2.0698,2.0697,2.0686,2.0679,2.0682,2.0675,2.0665,2.0662,2.0657,2.0656,2.0663,2.066,2.0661,2.0662,2.0681,2.0684,2.0687,0,0,0,0,0,0,2.0726,2.0713,2.0707,2.0711,2.0706,2.0695,2.0699,2.069,2.0687,2.0685,2.0672,2.067,2.0673,2.0668,2.0662,2.0671,2.066,2.0661,2.0674,2.0677,2.0679,2.0681,2.0647,0,0,0,0,0,2.0731,2.0731,2.072,2.0725,2.0722,2.0711,2.071,2.0702,2.0696,2.0694,2.0686,2.068,2.0678,2.0677,2.0675,2.0681,2.0679,2.0685,2.0687,2.0689,2.0691,2.0694,2.0697,2.0667,2.0667,2.0667,0,0,2.0741,2.0734,2.0735,2.0728,2.0723,2.0724,2.0709,2.071,2.071,2.0694,2.0695,2.0689,2.0682,2.0687,2.0688,2.0682,2.0698,2.0691,2.0693,2.0693,2.0696,2.0698,2.0701,2.0668,2.0667,2.0667,0,0,2.0759,2.0754,2.0758,2.0753,2.0746,2.0738,2.0739,2.073,2.0725,2.0727,2.0715,2.0714,2.0711,2.0706,2.0704,2.0721,2.0712,2.072,2.0733,2.0737,2.0739,2.0741,2.0748,2.075,2.0721,2.0721,2.0721,0,2.0773,2.0772,2.0761,2.0762,2.076,2.0746,2.075,2.0746,2.0738,2.0737,2.073,2.0726,2.072,2.0724,2.0728,2.0726,2.0727,2.0721,2.074,2.0742,2.0743,2.075,2.0752,2.0722,2.0722,2.0722,2.0722,0,2.0789,2.0789,2.0793,2.0787,2.0785,2.0788,2.0776,2.0776,2.0768,2.0761,2.0763,2.0756,2.0751,2.0752,2.0744,2.0754,2.0751,2.0742,2.0731,2.0748,2.0753,2.0755,2.0724,2.0724,2.0723,2.0723,0,0,2.0819,2.0806,2.0808,2.0805,2.0796,2.0796,2.0798,2.0794,2.0794,2.0789,2.0791,2.0789,2.0781,2.0778,2.077,2.0773,2.0787,2.0764,2.0764,2.0769,2.0798,2.0805,2.0808,2.0781,2.0781,2.0782,2.0799,0,2.0836,2.084,2.0829,2.0835,2.0835,2.0822,2.0823,2.0818,2.0812,2.0811,2.0804,2.0802,2.0792,2.079,2.0793,2.0785,2.0793,2.0784,2.0783,2.0783,2.0786,2.0811,2.0818,2.0835,2.0801,2.0802,2.0802,0,2.0857,2.0853,2.0859,2.085,2.085,2.0852,2.0848,2.0847,2.0841,2.0836,2.0833,2.0823,2.0825,2.0814,2.0816,2.081,2.0809,2.0805,2.0806,2.0805,2.0794,2.0812,2.084,2.0843,2.0805,2.0805,2.0805,0,2.0879,2.0876,2.0879,2.0877,2.0866,2.0868,2.0864,2.0857,2.0855,2.0852,2.0851,2.0847,2.0845,2.0843,2.0833,2.0826,2.0836,2.0824,2.0833,2.0833,2.0836,2.0836,2.0865,2.0834,2.0834,2.0834,2.0834,0,2.0899,2.0903,2.0889,2.0891,2.0895,2.0883,2.0888,2.0882,2.0877,2.0877,2.0865,2.0866,2.0852,2.0852,2.0844,2.0847,2.0846,2.0843,2.0841,2.0844,2.0845,2.0844,2.0842,2.0835,2.0835,2.0835,2.0834,0,2.0925,2.0915,2.0918,2.0908,2.0905,2.0909,2.0901,2.0902,2.0895,2.0896,2.0896,2.0885,2.0883,2.0873,2.0869,2.0864,2.087,2.0866,2.0873,2.0872,2.088,2.088,2.091,2.0914,2.088,2.0881,2.0881,0,2.0939,2.0942,2.0932,2.0932,2.0928,2.0928,2.0927,2.0915,2.0914,2.0907,2.091,2.0908,2.0905,2.0904,2.0896,2.0893,2.0888,2.0899,2.0888,2.0892,2.0889,2.089,2.089,2.0902,2.0902,2.0902,2.0903,0,2.0965,2.096,2.0958,2.0955,2.0954,2.0951,2.0947,2.0948,2.0935,2.0934,2.0933,2.0931,2.0928,2.0926,2.0922,2.0917,2.0908,2.0906,2.0908,2.0912,2.0916,2.0915,2.088,2.0906,2.0905,2.0905,2.0905,2.0905,2.0985,2.0988,2.0982,2.098,2.0976,2.0973,2.0974,2.0967,2.0966,2.0963,2.0956,2.0956,2.095,2.0943,2.0939,2.0939,2.0934,2.0936,2.0937,2.0938,2.094,2.0916,2.0938,2.0938,2.0938,2.0938,2.0938,0,2.1011,2.1007,2.1006,2.1001,2.1,2.0991,2.0987,2.0987,2.0987,2.0982,2.098,2.0979,2.0977,2.0969,2.0966,2.0968,2.0964,2.0968,2.0968,2.0967,2.0945,2.0944,2.0971,2.0971,2.0971,2.0971,2.0971,2.0971,2.1025,2.1029,2.1023,2.1025,2.102,2.102,2.1018,2.1015,2.1011,2.1011,2.1009,2.1004,2.0998,2.0994,2.0992,2.099,2.099,2.0996,2.0992,2.0972,2.0968,2.0965,2.0964,2.0995,2.0995,2.1014,2.1014,2.1014]}]]